This demonstration page uses our WeatherBlox Daily Observations layout. Learn more.

38.88101, -77.10428

Hourly Observations for April 5, 2018

Temp ( °F °C ) Dew Point ( °F °C ) Humidity (%) Winds ( mph kmh ) Pressure ( in mb ) Visibility ( mi km ) Precip ( " mm )
12:52 am 00:52 Mostly Clear 42 5.6 18 -7.8 38 38 WNW 15 24 30.08 1019 10 16.0934 0 0
1:35 am 01:35 Mostly Cloudy 42 5.6 20 -6.7 41 41 NW 18 30 30.09 1019 10 16.0934 0 0
1:52 am 01:52 Mostly Cloudy 42 5.6 20 -6.7 41 41 WNW 15 24 30.09 1019 10 16.0934 0 0
2:52 am 02:52 Partly Cloudy 40 4.4 17 -8.3 40 40 WNW 17 28 30.11 1020 10 16.0934 0 0
3:52 am 03:52 Partly Cloudy 39 3.9 15 -9.4 38 38 NW 14 22 30.12 1020 10 16.0934 0 0
4:52 am 04:52 Mostly Clear 37 2.8 16 -8.9 42 42 NNW 9 15 30.13 1020 10 16.0934 0 0
5:52 am 05:52 Mostly Clear 35 1.7 18 -7.8 50 50 NNW 9 15 30.15 1021 10 16.0934 0 0
6:21 am 06:21 Mostly Clear 36 2.2 18 -7.8 48 48 NW 9 15 30.18 1022 10 16.0934 0 0
6:52 am 06:52 Partly Cloudy 36 2.2 18 -7.8 48 48 WNW 6 9 30.18 1022 10 16.0934 0 0
7:52 am 07:52 Mostly Sunny 38 3.3 16 -8.9 41 41 W 7 11 30.21 1023 10 16.0934 0 0
8:52 am 08:52 Partly Cloudy 40 4.4 16 -8.9 38 38 NW 20 31 30.22 1023 10 16.0934 0 0
9:52 am 09:52 Mostly Cloudy 42 5.6 17 -8.3 36 36 NW 12 19 30.23 1024 10 16.0934 0 0
10:52 am 10:52 Mostly Cloudy 42 5.6 18 -7.8 38 38 NW 13 20 30.24 1024 10 16.0934 0 0
11:52 am 11:52 Partly Cloudy 45 7.2 19 -7.2 35 35 WNW 15 24 30.22 1024 10 16.0934 0 0
12:52 pm 12:52 Partly Cloudy 47 8.3 21 -6.1 36 36 W 9 15 30.2 1023 10 16.0934 0 0
1:52 pm 13:52 Partly Cloudy 50 10 20 -6.7 30 30 WNW 15 24 30.18 1022 10 16.0934 0 0
2:52 pm 14:52 Partly Cloudy 52 11.1 20 -6.7 28 28 NW 18 30 30.16 1022 10 16.0934 0 0
3:52 pm 15:52 Mostly Sunny 53 11.7 20 -6.7 27 27 NW 8 13 30.14 1021 10 16.0934 0 0
4:52 pm 16:52 Mostly Sunny 56 13.3 20 -6.7 24 24 WNW 12 19 30.12 1020 10 16.0934 0 0
5:22 pm 17:22 Mostly Sunny 55 12.8 19 -7.2 24 24 VRB 7 11 30.12 1020 10 16.0934 0 0
5:52 pm 17:52 Mostly Sunny 54 12.2 17 -8.3 23 23 NNW 12 19 30.1 1019 10 16.0934 0 0
6:52 pm 18:52 Mostly Sunny 53 11.7 17 -8.3 24 24 NNW 12 19 30.11 1020 10 16.0934 0 0
7:52 pm 19:52 Partly Cloudy 50 10 17 -8.3 27 27 N 7 11 30.12 1020 10 16.0934 0 0
8:52 pm 20:52 Mostly Cloudy 50 10 18 -7.8 28 28 N 7 11 30.13 1020 10 16.0934 0 0
9:52 pm 21:52 Mostly Cloudy 50 10 29 -1.7 44 44 Calm 30.13 1020 10 16.0934 0 0
10:52 pm 22:52 Cloudy 48 8.9 23 -5 37 37 SE 10 17 30.14 1021 10 16.0934 0 0
11:52 pm 23:52 Cloudy 47 8.3 26 -3.3 44 44 S 8 13 30.14 1021 10 16.0934 0 0

Powered by AerisWeather